EDT,Max TemperatureF,Mean TemperatureF,Min TemperatureF,Max Dew PointF,MeanDew PointF,Min DewpointF,Max Humidity, Mean Humidity, Min Humidity, Max Sea Level PressureIn, Mean Sea Level PressureIn, Min Sea Level PressureIn, Max VisibilityMiles, Mean VisibilityMiles, Min VisibilityMiles, Max Wind SpeedMPH, Mean Wind SpeedMPH, Max Gust SpeedMPH,PrecipitationIn, CloudCover, Events, WindDirDegrees
2013-7-1,75,68,60,70,64,59,100,95,83,30.10,30.01,29.93,10,6,0,9,5,,0.03,7,,189
2013-7-2,64,60,57,64,59,55,100,97,94,30.21,30.17,30.09,10,5,1,15,6,20,0.61,8,,49
2013-7-3,69,64,59,64,60,57,100,91,78,30.19,30.15,30.11,10,9,3,8,0,,0.00,5,,217
2013-7-4,84,73,62,73,68,61,100,84,70,30.14,30.09,30.03,10,9,2,0,0,,0.00,0,,-1
2013-7-5,87,76,66,73,70,64,100,80,55,30.08,30.03,29.98,10,8,2,,,,0.03,0,Thunderstorm,-1
2013-7-6,87,78,69,73,70,64,100,77,49,30.00,29.95,29.89,10,10,5,,,,0.03,1,,-1
2013-7-7,87,76,64,70,64,57,94,67,35,29.94,29.91,29.87,10,10,6,,,,0.00,1,,-1
2013-7-8,71,66,62,70,63,55,100,85,73,30.08,29.98,29.89,10,9,2,,,,0.71,4,,-1
2013-7-9,66,63,60,63,61,59,100,94,83,30.12,30.10,30.06,10,9,2,12,4,,0.00,8,,74
2013-7-10,66,62,59,66,60,57,100,96,88,30.09,29.97,29.78,10,4,0,9,6,,0.02,8,,87
2013-7-11,75,70,66,72,68,64,100,93,73,29.96,29.82,29.74,10,5,0,12,5,,0.00,7,,235
2013-7-12,77,67,57,64,57,55,94,67,47,30.22,30.11,29.96,10,10,10,13,6,20,0.00,2,,33
2013-7-13,75,65,55,63,59,54,100,76,53,30.32,30.29,30.22,10,10,7,9,4,,0.00,0,,189
2013-7-14,82,71,60,70,64,61,100,78,54,30.29,30.23,30.18,10,9,0,10,4,,0.00,1,,215
2013-7-15,89,76,64,70,66,63,100,71,40,30.18,30.12,30.05,10,10,2,14,5,17,0.00,0,,264
2013-7-16,87,76,66,70,66,63,94,72,55,30.19,30.11,30.07,10,10,3,10,4,,0.00,0,,27
2013-7-17,75,68,62,70,64,57,100,83,69,30.20,30.10,29.94,10,10,8,21,5,25,0.16,1,Thunderstorm,184
2013-7-18,80,73,64,70,66,61,100,79,54,30.01,29.98,29.91,10,9,0,14,6,18,0.00,1,,196
2013-7-19,87,76,64,73,69,63,100,83,58,29.96,29.78,29.65,10,9,2,17,7,25,0.00,3,,201
2013-7-20,84,75,66,72,69,64,94,77,58,29.77,29.65,29.60,10,9,4,18,7,24,0.07,1,,238
2013-7-21,69,63,57,63,55,54,94,72,56,30.04,29.94,29.77,10,10,10,12,4,16,0.00,1,,173
2013-7-22,69,62,55,63,57,52,100,85,53,30.07,30.03,29.95,10,10,2,9,3,,0.00,3,,101
2013-7-23,66,63,60,66,62,59,100,98,94,29.95,29.70,29.54,10,3,0,9,4,,0.30,8,,48
2013-7-24,75,68,60,72,64,50,100,89,64,29.97,29.69,29.57,10,5,0,10,5,,0.00,6,,245
2013-7-25,69,63,57,61,53,46,94,74,56,30.13,30.08,29.97,10,10,10,13,6,21,0.02,5,,24
2013-7-26,68,64,60,66,63,57,100,95,88,30.09,29.95,29.86,10,10,7,12,6,21,0.49,8,,9
2013-7-27,75,68,62,64,62,61,100,83,65,30.06,29.99,29.88,10,10,3,13,7,,0.00,4,,244
2013-7-28,66,62,59,64,62,59,100,95,88,30.07,30.04,30.02,10,6,0,13,4,16,0.01,8,,54
2013-7-29,66,62,59,63,61,57,100,95,88,30.08,30.04,30.00,10,7,0,9,4,,0.00,8,,123
2013-7-30,75,68,59,64,62,57,100,85,57,30.06,30.03,30.00,10,7,0,10,3,,0.00,4,,244
2013-7-31,75,65,55,61,58,54,100,77,53,30.11,30.06,30.04,10,10,10,9,4,,0.00,1,,275